GFSNE_sfc_temp_276.txt.gz
Temp
82 80 80 78 79 78 72 72 69 64 69 71 69 76 78 86 79 89 84 75 73 73 73 72 72 72 73 73 73 74 75 75 76 77 77 78 79 79
82 79 77 77 77 77 73 71 71 70 67 69 71 75 86 88 83 87 89 78 75 73 72 71 71 72 73 72 72 72 73 73 74 75 75 75 76 77
79 76 75 75 73 76 81 75 69 69 74 73 73 73 79 83 86 87 88 89 89 74 73 71 70 70 71 71 71 71 71 71 72 73 74 74 75 75
78 76 74 75 67 64 63 65 67 68 66 67 70 71 72 75 76 77 82 88 89 78 73 71 70 70 69 69 68 67 67 68 69 70 71 73 73 74
76 75 75 73 71 67 58 56 57 59 59 62 63 69 71 70 74 74 70 69 75 75 71 71 71 70 69 68 67 66 63 64 65 66 67 68 71 72
75 74 73 71 70 70 71 67 60 58 57 55 56 58 60 67 72 74 71 78 80 86 79 76 75 75 70 68 68 68 66 62 61 61 62 64 66 68
74 74 72 68 65 65 72 69 68 71 73 70 62 64 59 62 63 69 74 77 79 80 81 84 85 86 85 70 74 71 68 65 62 59 59 59 61 63
72 73 73 70 68 65 64 64 64 65 65 69 70 71 68 70 69 67 71 71 70 82 78 80 84 82 84 86 76 71 68 66 64 62 59 59 59 60
72 73 75 76 70 70 68 67 67 65 64 65 64 66 66 68 68 66 65 65 66 74 75 73 79 78 82 86 71 68 66 64 64 63 62 61 58 58
73 73 71 70 67 65 67 68 69 70 71 71 68 67 68 68 67 68 66 65 66 69 72 66 75 76 80 83 71 68 65 64 63 62 61 60 57 55
73 71 70 69 58 59 64 65 66 68 69 63 62 61 61 60 62 65 65 67 68 71 75 73 75 75 78 79 81 69 65 63 61 60 60 59 57 55
73 73 63 65 58 57 62 64 63 66 67 67 68 68 64 68 62 63 64 63 67 68 74 70 72 73 71 79 81 82 82 63 60 58 58 58 55 73
73 74 75 59 57 55 54 63 64 62 63 66 68 68 69 71 72 71 65 61 60 64 72 69 69 71 71 72 77 79 79 79 79 75 58 58 57 62
70 73 71 56 54 54 57 59 57 57 66 65 65 62 63 63 64 64 63 62 64 63 66 65 62 63 62 64 67 75 78 79 78 77 77 70 57 55
71 66 58 55 54 57 57 56 56 63 62 62 63 63 63 63 64 65 64 66 63 64 67 65 64 62 63 60 64 66 68 73 77 77 76 77 79 81
66 70 65 61 59 59 59 64 64 64 62 62 60 63 63 62 61 63 59 60 58 60 65 64 63 62 63 62 61 62 65 65 73 77 78 78 78 79
57 67 67 64 62 63 65 66 66 64 63 65 63 62 60 57 56 58 57 56 53 55 58 63 65 62 61 60 59 62 63 66 72 73 74 74 76 78
61 65 65 66 62 63 63 63 63 62 62 62 62 60 62 57 54 55 56 55 53 53 53 58 62 61 62 62 64 64 63 64 67 72 73 72 73 78
62 66 64 64 62 63 64 64 63 64 62 63 62 60 61 61 59 59 59 55 52 51 53 55 56 55 54 54 65 60 64 64 67 67 70 71 70 73
69 69 68 67 65 64 64 64 65 66 65 64 63 62 61 59 58 59 59 58 58 51 49 51 52 54 51 54 57 64 54 64 65 64 66 72 74 65
72 71 71 71 69 69 67 65 64 63 62 62 61 62 63 59 57 57 58 52 52 50 46 48 53 57 56 56 53 59 66 56 61 65 66 64 64 69
72 71 71 70 67 64 60 57 55 54 53 51 51 51 52 54 56 55 56 52 55 54 48 51 53 54 53 50 50 57 61 64 58 55 57 59 63 62
72 71 70 69 64 59 55 52 51 50 50 50 50 50 50 50 51 53 53 55 57 50 50 50 51 51 51 50 51 53 54 56 60 62 65 60 57 57

GFSNE_sfc_temp_279.txt.gz
Temp
80 80 77 77 78 76 75 73 70 68 69 70 69 73 73 74 73 75 76 74 74 73 73 73 73 74 73 73 74 74 74 75 76 75 76 78 78 79
83 77 76 75 75 76 78 75 72 70 68 73 70 72 73 75 74 71 86 73 74 74 73 72 73 73 73 73 73 73 73 73 73 74 74 75 76 77
78 78 75 75 75 75 74 73 76 77 70 71 72 73 72 74 77 83 83 86 85 72 73 74 72 72 72 72 71 71 71 71 72 72 73 73 74 75
76 75 75 76 73 71 72 68 65 65 65 66 69 68 70 70 69 72 78 80 82 77 74 73 71 70 70 70 69 69 68 68 68 70 71 72 73 73
75 74 73 74 72 73 72 68 61 61 60 59 58 63 68 71 69 73 71 75 79 75 71 71 71 71 70 69 68 67 65 65 65 65 66 68 70 72
76 75 73 71 70 70 74 72 72 71 62 57 56 56 59 67 67 63 66 71 72 81 79 77 75 75 70 70 68 67 65 64 63 61 62 63 65 67
75 75 72 68 66 66 71 67 68 70 72 72 72 66 62 61 64 68 66 68 70 75 79 80 80 84 84 70 75 70 68 66 63 60 59 59 60 62
74 75 73 68 68 66 65 66 65 66 65 67 68 69 68 71 74 73 73 70 67 76 74 75 80 80 83 86 76 75 70 67 65 63 59 58 58 59
73 74 75 76 73 70 68 68 69 66 65 66 64 66 66 68 68 66 67 68 68 71 70 70 75 74 81 83 73 69 68 66 65 63 62 61 60 58
74 73 72 72 65 66 66 68 69 70 71 72 70 69 69 69 66 66 65 65 68 71 69 63 72 73 76 79 73 69 67 65 64 63 62 61 59 57
75 74 73 71 60 60 65 64 65 67 70 66 65 64 64 63 64 66 65 65 66 70 76 71 73 74 76 76 79 70 66 63 62 62 62 60 57 57
76 76 65 68 60 59 63 63 62 65 67 66 67 68 65 66 63 64 67 64 65 66 73 70 71 72 69 76 78 79 80 64 62 60 60 59 57 69
74 75 72 60 57 56 56 64 63 64 64 66 68 70 69 70 71 68 63 61 59 62 69 66 65 67 69 70 74 77 79 78 76 72 57 57 56 62
70 74 71 57 56 56 58 61 59 59 65 64 65 65 64 63 64 65 64 65 66 63 64 65 63 63 61 63 63 71 75 77 78 78 79 70 56 57
72 66 59 57 57 59 58 57 56 66 65 64 63 61 64 64 64 64 63 64 63 63 64 64 60 61 63 60 62 64 65 70 74 74 75 77 77 77
66 70 66 62 59 62 63 67 67 64 64 64 63 62 64 64 63 62 61 61 60 60 64 63 61 59 59 62 61 60 66 61 69 72 71 71 77 79
58 67 67 68 68 63 67 67 65 67 66 67 65 64 61 63 63 63 60 58 55 57 58 61 62 61 60 59 59 61 60 63 66 68 68 69 75 78
61 64 65 67 63 63 67 69 68 67 67 67 66 65 64 62 64 62 61 58 55 55 56 57 57 58 59 62 63 61 63 64 66 65 67 66 68 77
61 64 66 66 66 71 68 66 64 66 64 63 62 62 61 61 62 63 61 57 56 56 57 60 57 53 50 50 62 61 62 64 65 64 65 65 65 68
62 64 67 72 69 68 69 68 65 63 61 59 58 56 54 54 55 57 57 60 57 58 55 58 57 53 48 49 51 58 56 57 62 62 62 65 68 64
74 74 74 73 70 70 64 59 58 57 56 55 55 54 52 51 50 52 54 54 56 55 56 58 58 57 53 54 50 53 58 57 59 64 63 62 61 63
74 73 73 72 66 59 57 56 54 54 53 51 50 50 50 50 49 49 50 51 52 53 58 59 60 55 51 49 48 52 57 63 60 56 57 58 62 59
73 73 72 67 59 57 55 52 50 49 49 48 47 47 47 48 49 49 49 50 51 52 54 57 53 52 51 51 50 51 52 55 60 61 64 59 57 57

GFSNE_sfc_temp_285.txt.gz
Temp
69 68 68 69 68 68 67 67 64 61 62 66 66 70 69 70 72 71 71 71 71 71 72 75 73 74 74 74 74 75 75 75 74 74 75 76 78 79
69 67 66 66 66 66 64 63 62 63 60 65 66 68 69 72 73 71 71 72 72 71 70 70 72 72 73 73 73 73 73 73 73 73 73 73 74 75
67 66 65 64 63 62 61 60 59 59 61 63 65 66 67 66 68 69 70 70 71 70 70 70 71 71 72 71 71 71 72 72 72 72 72 72 72 73
65 64 63 67 61 60 59 57 57 57 59 59 59 60 64 65 64 66 69 72 70 72 70 70 70 70 69 70 70 69 69 69 69 69 70 70 71 72
62 60 59 59 57 57 56 56 56 58 56 56 58 61 62 64 64 66 67 67 70 71 69 68 69 69 69 68 68 67 66 66 66 66 66 67 68 69
61 60 58 57 56 56 56 54 54 54 54 53 53 53 55 59 61 60 63 65 67 74 72 70 70 70 68 67 67 67 65 64 63 63 63 63 64 65
61 61 59 64 67 63 56 54 54 53 52 52 51 52 53 54 54 56 55 58 64 64 63 65 66 66 69 69 71 70 67 66 64 63 61 61 60 61
60 59 60 65 64 67 67 67 64 53 52 51 51 50 51 53 54 53 52 51 51 59 60 60 63 63 64 66 70 67 68 65 65 64 62 61 58 59
61 59 62 67 62 58 63 64 63 65 64 54 51 52 52 54 53 51 51 50 49 55 54 56 60 62 67 69 67 67 67 67 67 64 63 61 58 57
65 63 60 58 58 57 56 55 55 56 56 58 54 53 54 54 54 54 52 51 51 54 54 50 56 58 65 66 66 66 65 64 65 65 62 60 58 57
62 62 63 56 62 63 55 53 52 53 61 63 63 63 63 63 63 53 50 48 47 51 55 52 53 54 57 59 63 65 63 62 61 60 61 60 58 56
56 54 62 56 61 61 53 51 49 51 53 53 54 56 60 57 63 58 58 55 54 49 54 54 51 52 50 56 60 59 60 62 60 59 58 58 57 58
54 52 54 59 58 57 58 51 51 53 55 53 52 53 54 54 56 59 57 55 52 52 60 59 53 49 50 53 54 60 57 58 60 60 59 56 55 56
53 54 54 58 56 56 56 56 57 57 55 50 50 51 51 52 55 55 55 55 56 57 57 54 49 49 47 50 49 53 58 57 56 58 58 59 58 55
54 56 58 56 55 55 57 58 59 52 51 49 51 55 58 59 58 55 54 54 53 54 58 54 53 51 50 50 50 50 52 52 55 55 55 57 57 58
58 53 56 58 58 58 58 57 55 54 56 56 56 61 63 61 59 60 58 57 51 52 54 54 53 51 50 51 54 52 54 50 52 53 54 55 57 58
51 49 49 50 51 53 53 54 59 58 58 61 61 60 60 60 60 62 59 59 55 55 51 51 53 52 52 51 48 52 53 56 59 56 53 53 55 57
47 47 50 51 52 52 52 59 58 58 56 56 57 57 57 57 57 56 56 55 53 55 55 54 49 47 47 50 58 52 54 56 58 59 60 56 57 57
45 51 49 53 56 53 51 51 54 55 56 56 56 55 55 52 51 53 56 55 54 55 55 56 54 48 44 44 50 58 48 49 49 49 54 55 56 60
48 50 53 56 52 53 54 54 54 55 55 54 52 50 50 50 49 50 51 50 50 51 50 52 51 52 49 49 50 49 54 48 48 49 53 57 59 60
53 54 55 53 51 53 53 53 53 52 51 49 49 48 47 45 44 45 46 47 48 49 48 49 52 57 54 52 48 45 49 53 53 54 55 53 53 55
53 54 52 51 50 51 52 51 51 51 49 47 46 43 43 42 39 39 42 41 40 45 48 50 51 52 50 49 47 44 46 49 53 55 56 55 54 50
56 54 51 50 49 51 50 50 49 47 47 45 43 42 42 38 38 38 39 40 40 42 46 47 49 50 49 49 48 46 45 48 51 47 52 56 56 56

GFSNE_sfc_temp_291.txt.gz
Temp
64 63 63 64 61 61 60 60 63 60 60 64 63 66 66 68 72 69 70 72 71 71 70 70 70 71 73 74 76 75 76 76 76 76 75 77 78 79
63 61 59 58 57 57 60 59 58 61 61 64 65 65 64 66 69 68 70 71 71 70 69 69 69 69 69 70 71 71 72 73 73 73 73 73 74 75
61 59 57 58 55 55 55 54 54 54 60 63 64 64 64 63 63 65 67 69 69 69 69 67 67 67 67 67 68 69 69 70 71 72 72 71 71 73
58 57 56 60 53 52 52 51 51 52 53 52 54 59 62 62 62 63 65 67 66 70 69 67 67 66 66 65 66 66 67 67 67 68 70 71 72 72
57 55 54 54 52 50 50 50 50 52 49 50 50 53 55 58 62 64 63 63 67 70 65 65 65 64 62 61 62 63 63 64 64 64 65 67 68 70
56 56 55 55 53 52 52 51 51 50 49 48 48 49 50 53 53 56 56 60 59 68 66 64 64 64 64 61 61 63 63 61 60 60 61 62 64 66
56 56 56 58 63 59 55 51 51 49 49 48 48 47 47 49 49 50 50 51 55 55 56 59 60 59 60 63 63 61 63 64 62 61 61 60 60 62
55 56 57 65 64 66 65 63 57 51 48 47 46 45 46 47 49 49 47 46 46 52 52 52 56 57 61 60 64 63 63 63 62 61 61 60 60 60
55 55 57 63 61 56 63 64 61 63 60 51 47 46 47 49 49 48 47 46 46 51 49 48 50 52 57 62 64 64 62 62 61 60 60 59 59 58
56 56 55 56 57 56 54 54 54 54 54 54 49 50 50 51 49 49 48 47 47 49 49 46 49 50 54 56 63 64 62 61 60 59 59 58 56 55
54 54 55 55 59 62 55 54 52 52 58 61 61 61 60 61 60 50 47 45 45 46 49 48 48 49 50 52 56 63 60 60 59 59 59 58 55 54
52 53 59 57 58 60 54 50 47 49 50 51 52 53 55 53 60 52 49 47 45 44 49 49 47 48 47 49 50 53 53 56 57 57 58 57 55 56
51 52 53 58 56 57 57 50 50 52 54 50 50 50 52 52 53 53 50 49 47 46 52 51 47 47 46 46 48 51 51 51 52 53 54 54 54 55
52 52 52 55 54 55 55 56 56 58 51 47 49 53 55 56 59 59 59 54 56 56 58 54 49 47 45 43 44 47 49 50 49 50 52 54 54 55
52 54 56 54 53 53 56 57 57 50 48 49 53 55 57 59 60 59 59 59 60 58 58 54 55 51 50 45 45 46 47 48 50 50 50 51 52 57
57 52 54 55 56 55 55 52 49 48 48 49 53 56 58 57 57 59 58 59 58 58 59 59 56 54 52 52 52 49 47 47 48 49 49 49 51 52
50 48 48 47 47 50 47 47 48 48 48 48 50 52 56 57 57 58 57 56 54 55 56 60 57 57 56 56 49 52 51 47 50 50 47 47 49 51
48 46 48 46 47 47 46 47 47 51 48 52 54 54 54 53 52 52 52 50 49 51 52 55 57 51 50 52 57 54 51 51 48 48 47 46 47 51
43 46 46 48 47 46 45 45 46 47 48 54 53 52 51 50 46 45 45 45 43 45 47 51 51 51 47 47 56 57 52 47 46 45 47 47 47 51
44 46 47 46 46 45 46 45 46 46 52 52 50 49 47 45 44 40 42 41 39 40 41 44 46 49 47 48 49 52 53 53 47 45 45 46 49 55
48 47 47 47 46 46 45 45 44 49 50 49 48 46 44 41 40 41 41 41 40 39 39 40 44 49 47 51 48 49 52 52 54 51 45 44 44 44
49 48 49 47 46 45 44 44 45 48 49 47 46 42 40 42 42 42 41 40 39 39 39 41 43 44 46 48 47 49 49 51 52 54 53 52 45 42
50 49 49 47 45 45 47 46 45 48 47 46 44 43 42 41 42 42 42 41 41 41 41 41 43 45 46 47 48 48 48 49 50 50 52 53 54 54